DELTA 1 DEB, 7183

Orbit data source: Space-Track

DELTA 1 DEB, 7183 is space debris in SSO originally from a launch on Tue, 06 Nov 1973 UTC launched from the Air Force Western Test Range (AFWTR). Debris objects in space refer to the collection of defunct objects orbiting the Earth. Examples of debris include non-operational satellites, rocket bodies, and fragments generated from explosions, collisions, or faulty payload assembly.

Loading next visibility...
Identifier
7183, 1973-086EU
Orbit
SSO
Country
Flag of USUS
Related business
Manufacturer
Unknown
Mission
Spacecraft
Bus & Motor
Unknown
Mass
Unknown
Launch date (UTC)
1973-11-06 (53 years ago)
Launch vehicle
Unknown
Launch site
Air Force Western Test Range (AFWTR)
Object type
Payload
Rocket body
Debris
Shape & HBR
Unknown shape, 0.1 m
Radar Cross Section
Medium (>0.1 m² and <1 m²)

Expand to show TLE details & history
Last TLE update: 15 hours ago

TLE from 15 hours ago
0 DELTA 1 DEB
1 07183U 73086EU  26235.60814440  .00000161  00000-0  10297-2 0  9997
2 07183 102.3874 272.9157 0127994 131.6956  34.4121 12.70198773433226
Epoch: 2026-08-23T14:35Z
TLE epoch observation values (Epoch: 2026-08-23T14:35:43.676Z)
Latitude
12.71026°
Longitude
-95.09282°
Altitude
1,301.426 km
Speed
7.245 km/s
True Right ascension
06h 22m 57s
True Declination
12° 38' 31"
Sunlit
Object was in daylight at epoch
Visualization orbit readout
Latitude
Unknown
Longitude
Unknown
Altitude
Unknown
Speed
Unknown
Apparent Right ascension
Unknown
Apparent Declination
Unknown
Sunlit
N/A
Visualization observer readout
Local Sidereal Time
20:44:50
Azimuth
Unknown
Elevation
Unknown
Doppler factor
Unknown
Orbital elements
Apogee altitude
1,477.972 km
Perigee altitude
1,279.406 km
Semi-major axis
7,756.826 km
Eccentricity
0.0128
Inclination
102.3874°
RAAN
272.9157°
Arg. of periapsis
131.6956°
True anomaly
35.25205°
Mean anomaly
34.4121°
Eccentric anomaly
34.83096°
Mean motion
3.177 °/min
Orbital period
113.31 mins
BSTAR
0.0010297
Loading maneuver chart data...
Computing Atmospheric mass density...
Loading historical data...
Loading historical data...
Loading historical data...
Loading historical data...
Loading historical data...
Loading historical data...
Loading historical data...

Documentation

Showing up to 5 results
|